GW6439 Weather Reports


Display with metric or nautical units.
time (UTC)temp
F
wind
direction
speed
MPH
gust
MPH
rain 1hr
in
rain 24hr
in
rain mn
in
humidity
%
barometer
mb
20260506091104 57 129 0.0 0.0 0.00 0.00 0.00 96 1017.1
20260506090023 57 130 0.0 0.0 0.00 0.00 0.00 96 1017.2
20260506085031 57 129 0.0 1.0 0.00 0.00 0.00 96 1017.2
20260506083031 57 133 0.0 1.0 0.00 0.00 0.00 96 1017.2
20260506082053 57 129 0.0 0.0 0.00 0.00 0.00 96 1017.2
20260506081028 58 129 0.0 1.0 0.00 0.00 0.00 96 1017.2
20260506073052 58 308 0.0 0.0 0.00 0.04 0.00 95 1017.0
20260506072046 58 308 0.0 1.0 0.00 0.04 0.00 95 1016.9
20260506071029 58 308 0.0 0.0 0.00 0.04 0.00 94 1016.8
20260506062055 58 80 0.0 1.0 0.00 0.09 0.04 94 1016.4
20260506061030 58 236 0.0 1.0 0.00 0.09 0.04 93 1016.2
20260506051022 60 114 0.0 0.0 0.00 0.18 0.04 92 1015.5
20260506045015 60 114 0.0 0.0 0.00 0.24 0.04 92 1015.4
20260506044030 60 115 0.0 1.0 0.00 0.24 0.04 92 1015.4
20260506043027 60 118 0.0 1.0 0.00 0.24 0.04 92 1015.3
20260506042023 60 118 0.0 1.0 0.00 0.24 0.04 91 1015.1
20260506041015 60 118 0.0 0.0 0.00 0.24 0.04 91 1014.9
20260506040031 60 118 0.0 1.0 0.00 0.24 0.04 90 1014.7
20260506035019 60 118 0.0 1.0 0.00 0.41 0.04 90 1014.8
20260506034018 60 118 0.0 1.0 0.00 0.41 0.04 90 1014.9
20260506033023 61 118 0.0 0.0 0.00 0.41 0.04 90 1014.7
20260506032039 61 118 0.0 1.0 0.00 0.41 0.04 89 1014.5
20260506031054 61 118 0.0 1.0 0.00 0.41 0.04 89 1014.4
20260506030034 61 118 0.0 1.0 0.00 0.41 0.04 88 1014.2
20260506025026 61 120 0.0 1.0 0.00 0.50 0.04 88 1014.2
20260506024027 61 96 0.0 2.0 0.00 0.50 0.04 87 1014.1
20260506023021 61 154 1.0 5.0 0.00 0.50 0.04 87 1013.9
20260506022027 62 190 0.0 3.0 0.00 0.50 0.04 86 1013.8
20260506021016 62 115 0.0 5.0 0.00 0.50 0.04 85 1013.6
20260506020032 62 115 1.0 3.0 0.00 0.50 0.04 85 1013.8
20260506015020 63 113 1.0 4.0 0.00 0.59 0.04 85 1013.8
20260506014045 63 205 1.0 5.0 0.00 0.59 0.04 84 1013.8
20260506013019 63 98 1.0 5.0 0.00 0.59 0.04 84 1013.8
20260506012029 63 149 2.0 4.0 0.00 0.59 0.04 83 1013.7
20260506011027 63 106 2.0 4.0 0.00 0.59 0.04 83 1013.7
20260506010036 63 108 1.0 3.0 0.00 0.59 0.04 82 1013.7
20260506005036 63 191 1.0 4.0 0.00 0.65 0.04 81 1013.5
20260506004035 63 128 2.0 4.0 0.00 0.65 0.04 81 1013.6
20260506003025 63 146 1.0 3.0 0.00 0.65 0.04 82 1013.4
20260506002019 63 126 1.0 4.0 0.00 0.65 0.04 81 1013.5
20260506001021 63 143 0.0 2.0 0.00 0.65 0.04 81 1013.4
20260506000016 63 197 0.0 3.0 0.00 0.65 0.04 80 1013.4
20260505235023 64 127 0.0 2.0 0.00 0.75 0.04 80 1013.4
20260505234029 64 121 1.0 3.0 0.00 0.75 0.04 81 1013.4
20260505233018 64 88 0.0 2.0 0.00 0.75 0.04 81 1013.3
20260505232034 64 140 1.0 2.0 0.00 0.75 0.04 80 1013.4
20260505231026 64 105 0.0 2.0 0.00 0.75 0.04 80 1013.4
20260505230033 64 222 0.0 1.0 0.00 0.75 0.04 83 1013.5
20260505225032 63 193 0.0 1.0 0.00 0.79 0.04 82 1013.4
20260505224039 63 193 0.0 1.0 0.00 0.79 0.04 83 1013.5
20260505223052 63 132 0.0 1.0 0.00 0.79 0.04 82 1013.5
20260505222035 63 224 0.0 3.0 0.00 0.79 0.04 82 1013.7
20260505221037 63 145 0.0 1.0 0.00 0.79 0.04 82 1013.8
20260505220034 64 153 0.0 1.0 0.00 0.79 0.04 80 1013.8
20260505215019 64 210 0.0 2.0 0.00 0.83 0.04 81 1013.8
20260505214032 64 82 1.0 5.0 0.00 0.83 0.04 81 1013.9
20260505213028 65 131 0.0 3.0 0.00 0.83 0.04 81 1013.9
20260505212045 65 143 1.0 3.0 0.00 0.83 0.04 81 1014.0
20260505211016 65 316 1.0 3.0 0.00 0.83 0.04 81 1013.9
20260505210046 64 201 0.0 3.0 0.00 0.83 0.04 81 1013.9
20260505205019 64 315 0.0 2.0 0.00 0.83 0.04 82 1013.9
20260505204022 64 228 0.0 2.0 0.00 0.83 0.04 82 1014.0
20260505203024 63 139 0.0 4.0 0.00 0.83 0.04 81 1013.9
20260505202026 63 229 2.0 5.0 0.00 0.83 0.04 83 1014.0
20260505201018 64 226 2.0 4.0 0.00 0.83 0.04 83 1014.0
20260505200022 63 118 1.0 5.0 0.00 0.83 0.04 83 1014.1
20260505195028 64 128 1.0 4.0 0.00 0.88 0.04 83 1014.1
20260505194023 63 103 0.0 5.0 0.00 0.88 0.04 82 1014.2
20260505193044 64 148 2.0 8.0 0.00 0.88 0.04 83 1014.2
20260505192034 64 162 1.0 5.0 0.00 0.88 0.04 83 1014.2
20260505191017 63 254 1.0 3.0 0.00 0.88 0.04 85 1014.2
20260505190021 63 122 0.0 1.0 0.00 0.88 0.04 84 1014.2
20260505185036 63 204 0.0 1.0 0.00 0.89 0.04 87 1014.2
20260505184034 63 210 0.0 3.0 0.00 0.89 0.04 87 1014.1
20260505183016 62 156 1.0 2.0 0.00 0.89 0.04 87 1014.1
20260505182036 61 115 1.0 2.0 0.00 0.89 0.04 89 1014.1
20260505181022 60 128 1.0 4.0 0.00 0.89 0.04 91 1014.1
20260505180024 60 156 1.0 5.0 0.00 0.89 0.04 91 1014.0
20260505175044 59 121 1.0 2.0 0.00 0.91 0.04 93 1013.9
20260505174029 58 132 1.0 3.0 0.00 0.91 0.04 96 1013.8
20260505173040 57 232 2.0 4.0 0.00 0.91 0.04 99 1013.6
20260505172017 56 108 1.0 3.0 0.00 0.91 0.04 100 1013.8
20260505171016 55 144 1.0 2.0 0.00 0.91 0.04 100 1013.8
20260505170019 55 146 0.0 2.0 0.00 0.91 0.04 100 1013.9
20260505165022 55 101 1.0 4.0 0.00 0.91 0.04 100 1013.9
20260505164023 55 127 0.0 3.0 0.00 0.91 0.04 100 1013.8
20260505163028 54 106 1.0 3.0 0.00 0.91 0.04 100 1013.8
20260505162036 54 125 1.0 3.0 0.00 0.91 0.04 100 1013.8
20260505161018 54 172 1.0 3.0 0.00 0.91 0.04 100 1013.7
20260505153023 53 134 1.0 3.0 0.00 0.91 0.04 100 1013.7
20260505152034 52 160 1.0 3.0 0.00 0.91 0.04 100 1013.5
20260505151035 52 105 1.0 3.0 0.00 0.91 0.04 100 1013.5
20260505125015 51 134 1.0 3.0 0.00 0.91 0.04 100 1012.6
20260505124043 51 124 1.0 4.0 0.00 0.91 0.04 100 1012.5
20260505122017 52 159 1.0 2.0 0.00 0.91 0.04 100 1012.5
20260505121033 52 188 1.0 2.0 0.00 0.91 0.04 100 1012.4
20260505120032 52 163 1.0 3.0 0.00 0.91 0.04 100 1012.5
20260505115032 52 125 0.0 2.0 0.00 0.91 0.04 100 1012.6
20260505114022 52 159 1.0 2.0 0.00 0.91 0.04 100 1012.6
20260505113018 52 97 0.0 0.0 0.00 0.91 0.04 100 1012.6
20260505112032 52 111 0.0 0.0 0.00 0.91 0.04 100 1012.5
20260505111034 52 108 0.0 2.0 0.00 0.91 0.04 100 1012.7
20260505102015 52 105 0.0 2.0 0.00 0.91 0.04 100 1012.6
20260505101035 52 160 1.0 3.0 0.00 0.91 0.04 100 1012.3
20260505100033 52 166 1.0 3.0 0.00 0.91 0.04 100 1012.7
20260505095021 52 122 1.0 5.0 0.00 0.91 0.04 100 1012.6
20260505094019 52 136 1.0 2.0 0.00 0.91 0.04 100 1012.8
20260505093020 52 109 0.0 0.0 0.00 0.91 0.04 100 1013.0
20260505092029 52 108 0.0 0.0 0.00 0.91 0.04 100 1013.0